Time,TemperatureF,DewpointF,PressureIn,WindDirection,WindDirectionDegrees,WindSpeedMPH,WindSpeedGustMPH,Humidity,HourlyPrecipIn,Conditions,Clouds,dailyrainin,SoftwareType,DateUTC
2013-01-31 00:01:00,55.9,23.3,30.20,NNE,14,2.0,4.0,28,0.00,,---,0.00,VWS V14.01,2013-01-31 06:01:00,
2013-01-31 00:06:00,55.9,23.3,30.20,NNE,15,1.0,4.0,28,0.00,,---,0.00,VWS V14.01,2013-01-31 06:06:00,
2013-01-31 00:11:00,55.7,24.0,30.20,NNE,18,1.0,4.0,29,0.00,,---,0.00,VWS V14.01,2013-01-31 06:11:00,
2013-01-31 00:16:00,55.4,24.5,30.19,NNE,19,1.0,2.0,30,0.00,,---,0.00,VWS V14.01,2013-01-31 06:16:00,
2013-01-31 00:21:00,55.3,24.4,30.19,NNE,19,2.0,3.0,30,0.00,,---,0.00,VWS V14.01,2013-01-31 06:21:00,
2013-01-31 00:26:00,55.1,23.4,30.19,NNE,18,5.0,5.0,29,0.00,,---,0.00,VWS V14.01,2013-01-31 06:26:00,
2013-01-31 00:31:00,55.1,23.4,30.19,NNE,19,2.0,5.0,29,0.00,,---,0.00,VWS V14.01,2013-01-31 06:31:00,
2013-01-31 00:36:00,55.0,23.4,30.19,NNE,19,1.0,5.0,29,0.00,,---,0.00,VWS V14.01,2013-01-31 06:36:00,
2013-01-31 00:41:00,54.8,23.2,30.19,NNE,19,2.0,6.0,29,0.00,,---,0.00,VWS V14.01,2013-01-31 06:41:00,
2013-01-31 00:46:00,54.8,23.2,30.19,NNE,19,1.0,7.0,29,0.00,,---,0.00,VWS V14.01,2013-01-31 06:46:00,
2013-01-31 00:51:00,54.7,23.9,30.19,NNE,23,1.0,7.0,30,0.00,,---,0.00,VWS V14.01,2013-01-31 06:51:00,
2013-01-31 00:56:00,54.5,23.7,30.19,NNE,23,2.0,7.0,30,0.00,,---,0.00,VWS V14.01,2013-01-31 06:56:00,
2013-01-31 01:01:00,54.5,23.7,30.19,NNE,23,1.0,1.0,30,0.00,,---,0.00,VWS V14.01,2013-01-31 07:01:00,
2013-01-31 01:06:00,54.4,23.6,30.19,NNE,23,3.0,7.0,30,0.00,,---,0.00,VWS V14.01,2013-01-31 07:06:00,
2013-01-31 01:11:00,54.5,22.9,30.19,NE,35,3.0,7.0,29,0.00,,---,0.00,VWS V14.01,2013-01-31 07:11:00,
2013-01-31 01:16:00,54.7,23.1,30.19,NE,45,1.0,2.0,29,0.00,,---,0.00,VWS V14.01,2013-01-31 07:16:00,
2013-01-31 01:21:00,54.7,23.9,30.19,NE,45,1.0,2.0,30,0.00,,---,0.00,VWS V14.01,2013-01-31 07:21:00,
2013-01-31 01:26:00,54.5,24.5,30.19,NE,43,2.0,4.0,31,0.00,,---,0.00,VWS V14.01,2013-01-31 07:26:00,
2013-01-31 01:31:00,54.5,26.0,30.19,NE,43,1.0,3.0,33,0.00,,---,0.00,VWS V14.01,2013-01-31 07:31:00,
2013-01-31 01:36:00,54.5,26.0,30.19,NE,42,1.0,3.0,33,0.00,,---,0.00,VWS V14.01,2013-01-31 07:36:00,
2013-01-31 01:41:00,54.4,25.9,30.19,NE,40,4.0,4.0,33,0.00,,---,0.00,VWS V14.01,2013-01-31 07:41:00,
2013-01-31 01:46:00,54.4,26.6,30.19,NE,40,1.0,1.0,34,0.00,,---,0.00,VWS V14.01,2013-01-31 07:46:00,
2013-01-31 01:51:00,54.2,26.5,30.19,NE,40,1.0,1.0,34,0.00,,---,0.00,VWS V14.01,2013-01-31 07:51:00,
2013-01-31 01:56:00,54.1,27.1,30.19,NE,40,1.0,2.0,35,0.00,,---,0.00,VWS V14.01,2013-01-31 07:56:00,
2013-01-31 02:01:00,53.8,28.2,30.19,NE,40,1.0,1.0,37,0.00,,---,0.00,VWS V14.01,2013-01-31 08:01:00,
2013-01-31 02:06:00,53.5,28.5,30.19,NE,40,1.0,1.0,38,0.00,,---,0.00,VWS V14.01,2013-01-31 08:06:00,
2013-01-31 02:11:00,53.2,28.9,30.19,NE,40,1.0,1.0,39,0.00,,---,0.00,VWS V14.01,2013-01-31 08:11:00,
2013-01-31 02:16:00,52.6,29.0,30.19,NE,40,1.0,1.0,40,0.00,,---,0.00,VWS V14.01,2013-01-31 08:16:00,
2013-01-31 02:21:00,52.0,29.0,30.19,NE,40,1.0,1.0,41,0.00,,---,0.00,VWS V14.01,2013-01-31 08:21:00,
2013-01-31 02:26:00,51.4,29.7,30.19,NE,40,1.0,1.0,43,0.00,,---,0.00,VWS V14.01,2013-01-31 08:26:00,
2013-01-31 02:31:00,50.5,30.0,30.19,NE,40,1.0,1.0,45,0.00,,---,0.00,VWS V14.01,2013-01-31 08:31:00,
2013-01-31 02:36:00,49.9,30.0,30.19,NE,40,1.0,2.0,46,0.00,,---,0.00,VWS V14.01,2013-01-31 08:36:00,
2013-01-31 02:41:00,49.4,30.5,30.19,NE,40,1.0,2.0,48,0.00,,---,0.00,VWS V14.01,2013-01-31 08:41:00,
2013-01-31 02:46:00,48.8,30.0,30.18,NE,40,1.0,1.0,48,0.00,,---,0.00,VWS V14.01,2013-01-31 08:46:00,
2013-01-31 02:51:00,48.2,30.5,30.18,NE,40,1.0,1.0,50,0.00,,---,0.00,VWS V14.01,2013-01-31 08:51:00,
2013-01-31 02:56:00,47.7,30.5,30.18,NE,40,1.0,1.0,51,0.00,,---,0.00,VWS V14.01,2013-01-31 08:56:00,
2013-01-31 03:01:00,47.3,30.6,30.19,NE,40,1.0,1.0,52,0.00,,---,0.00,VWS V14.01,2013-01-31 09:01:00,
2013-01-31 03:06:00,47.0,30.8,30.19,NE,40,1.0,1.0,53,0.00,,---,0.00,VWS V14.01,2013-01-31 09:06:00,
2013-01-31 03:11:00,46.7,31.0,30.19,NE,40,1.0,1.0,54,0.00,,---,0.00,VWS V14.01,2013-01-31 09:11:00,
2013-01-31 03:16:00,46.4,30.7,30.19,NE,40,1.0,1.0,54,0.00,,---,0.00,VWS V14.01,2013-01-31 09:16:00,
2013-01-31 03:21:00,46.1,30.9,30.19,NE,40,1.0,1.0,55,0.00,,---,0.00,VWS V14.01,2013-01-31 09:21:00,
2013-01-31 03:26:00,45.8,31.5,30.19,NE,40,1.0,1.0,57,0.00,,---,0.00,VWS V14.01,2013-01-31 09:26:00,
2013-01-31 03:31:00,45.5,31.2,30.19,NE,40,1.0,1.0,57,0.00,,---,0.00,VWS V14.01,2013-01-31 09:31:00,
2013-01-31 03:36:00,45.1,31.2,30.19,NE,40,1.0,1.0,58,0.00,,---,0.00,VWS V14.01,2013-01-31 09:36:00,
2013-01-31 03:41:00,44.8,31.4,30.19,NE,40,1.0,1.0,59,0.00,,---,0.00,VWS V14.01,2013-01-31 09:41:00,
2013-01-31 03:46:00,44.5,31.5,30.19,NE,40,1.0,1.0,60,0.00,,---,0.00,VWS V14.01,2013-01-31 09:46:00,
2013-01-31 03:51:00,44.3,30.9,30.19,NE,40,1.0,1.0,59,0.00,,---,0.00,VWS V14.01,2013-01-31 09:51:00,
2013-01-31 03:56:00,44.1,30.7,30.19,NE,40,1.0,1.0,59,0.00,,---,0.00,VWS V14.01,2013-01-31 09:56:00,
2013-01-31 04:01:00,43.8,30.0,30.19,NE,40,1.0,1.0,58,0.00,,---,0.00,VWS V14.01,2013-01-31 10:01:00,
2013-01-31 04:06:00,43.6,28.1,30.19,NE,40,1.0,2.0,54,0.00,,---,0.00,VWS V14.01,2013-01-31 10:06:00,
2013-01-31 04:11:00,43.6,28.5,30.19,NE,40,1.0,2.0,55,0.00,,---,0.00,VWS V14.01,2013-01-31 10:11:00,
2013-01-31 04:16:00,43.3,28.2,30.19,NE,40,1.0,1.0,55,0.00,,---,0.00,VWS V14.01,2013-01-31 10:16:00,
2013-01-31 04:21:00,43.1,28.0,30.19,NE,40,1.0,3.0,55,0.00,,---,0.00,VWS V14.01,2013-01-31 10:21:00,
2013-01-31 04:26:00,42.9,27.9,30.19,NE,40,1.0,3.0,55,0.00,,---,0.00,VWS V14.01,2013-01-31 10:26:00,
2013-01-31 04:31:00,42.8,27.8,30.19,NE,40,1.0,1.0,55,0.00,,---,0.00,VWS V14.01,2013-01-31 10:31:00,
2013-01-31 04:36:00,42.6,27.6,30.19,NE,40,1.0,1.0,55,0.00,,---,0.00,VWS V14.01,2013-01-31 10:36:00,
2013-01-31 04:41:00,42.3,27.3,30.19,NE,40,1.0,1.0,55,0.00,,---,0.00,VWS V14.01,2013-01-31 10:41:00,
2013-01-31 04:46:00,42.2,27.6,30.19,NE,40,1.0,1.0,56,0.00,,---,0.00,VWS V14.01,2013-01-31 10:46:00,
2013-01-31 04:51:00,42.1,27.5,30.19,NE,40,1.0,1.0,56,0.00,,---,0.00,VWS V14.01,2013-01-31 10:51:00,
2013-01-31 04:56:00,41.9,27.4,30.19,NE,40,2.0,2.0,56,0.00,,---,0.00,VWS V14.01,2013-01-31 10:56:00,
2013-01-31 05:01:00,41.8,26.4,30.20,NE,40,1.0,2.0,54,0.00,,---,0.00,VWS V14.01,2013-01-31 11:01:00,
2013-01-31 05:06:00,41.5,25.7,30.20,NE,40,1.0,3.0,53,0.00,,---,0.00,VWS V14.01,2013-01-31 11:06:00,
2013-01-31 05:11:00,41.2,24.9,30.20,NE,40,2.0,3.0,52,0.00,,---,0.00,VWS V14.01,2013-01-31 11:11:00,
2013-01-31 05:16:00,41.1,24.4,30.20,NE,40,1.0,3.0,51,0.00,,---,0.00,VWS V14.01,2013-01-31 11:16:00,
2013-01-31 05:21:00,40.9,24.2,30.20,NE,40,1.0,4.0,51,0.00,,---,0.00,VWS V14.01,2013-01-31 11:21:00,
2013-01-31 05:26:00,40.8,23.1,30.20,NE,40,1.0,4.0,49,0.00,,---,0.00,VWS V14.01,2013-01-31 11:26:00,
2013-01-31 05:31:00,40.6,23.0,30.20,NE,40,1.0,1.0,49,0.00,,---,0.00,VWS V14.01,2013-01-31 11:31:00,
2013-01-31 05:36:00,40.5,22.4,30.20,NE,40,1.0,1.0,48,0.00,,---,0.00,VWS V14.01,2013-01-31 11:36:00,
2013-01-31 05:41:00,40.3,22.2,30.20,NE,40,1.0,1.0,48,0.00,,---,0.00,VWS V14.01,2013-01-31 11:41:00,
2013-01-31 05:46:00,40.2,22.1,30.20,NE,40,1.0,1.0,48,0.00,,---,0.00,VWS V14.01,2013-01-31 11:46:00,
2013-01-31 05:51:00,40.1,22.0,30.20,NE,40,1.0,1.0,48,0.00,,---,0.00,VWS V14.01,2013-01-31 11:51:00,
2013-01-31 05:56:00,39.9,21.8,30.20,NE,40,1.0,1.0,48,0.00,,---,0.00,VWS V14.01,2013-01-31 11:56:00,
2013-01-31 06:01:00,39.8,21.7,30.20,NE,40,1.0,1.0,48,0.00,,---,0.00,VWS V14.01,2013-01-31 12:01:00,
2013-01-31 06:06:00,39.6,21.5,30.20,NE,40,1.0,1.0,48,0.00,,---,0.00,VWS V14.01,2013-01-31 12:06:00,
2013-01-31 06:11:00,39.5,21.0,30.20,NE,40,1.0,1.0,47,0.00,,---,0.00,VWS V14.01,2013-01-31 12:11:00,
2013-01-31 06:16:00,39.3,20.3,30.21,NE,40,1.0,1.0,46,0.00,,---,0.00,VWS V14.01,2013-01-31 12:16:00,
2013-01-31 06:21:00,39.3,19.8,30.21,NE,40,1.0,3.0,45,0.00,,---,0.00,VWS V14.01,2013-01-31 12:21:00,
2013-01-31 06:26:00,39.3,19.8,30.21,NE,40,1.0,3.0,45,0.00,,---,0.00,VWS V14.01,2013-01-31 12:26:00,
2013-01-31 06:31:00,39.3,19.8,30.22,NE,40,1.0,2.0,45,0.00,,---,0.00,VWS V14.01,2013-01-31 12:31:00,
2013-01-31 06:36:00,39.5,19.4,30.22,NE,40,1.0,2.0,44,0.00,,---,0.00,VWS V14.01,2013-01-31 12:36:00,
2013-01-31 06:42:00,39.6,20.0,30.22,NE,40,1.0,3.0,45,0.00,,---,0.00,VWS V14.01,2013-01-31 12:42:00,
2013-01-31 06:47:00,39.6,20.0,30.22,NE,40,1.0,1.0,45,0.00,,---,0.00,VWS V14.01,2013-01-31 12:47:00,
2013-01-31 06:52:00,39.5,19.9,30.22,NE,40,1.0,1.0,45,0.00,,---,0.00,VWS V14.01,2013-01-31 12:52:00,
2013-01-31 06:57:00,39.5,20.5,30.22,NE,40,1.0,1.0,46,0.00,,---,0.00,VWS V14.01,2013-01-31 12:57:00,
2013-01-31 07:02:00,39.3,20.8,30.22,NE,40,1.0,1.0,47,0.00,,---,0.00,VWS V14.01,2013-01-31 13:02:00,
2013-01-31 07:07:00,39.3,20.8,30.22,NE,40,1.0,1.0,47,0.00,,---,0.00,VWS V14.01,2013-01-31 13:07:00,
2013-01-31 07:12:00,39.3,21.3,30.22,NE,40,1.0,1.0,48,0.00,,---,0.00,VWS V14.01,2013-01-31 13:12:00,
2013-01-31 07:17:00,39.3,21.3,30.23,NE,40,1.0,1.0,48,0.00,,---,0.00,VWS V14.01,2013-01-31 13:17:00,
2013-01-31 07:22:00,39.2,22.1,30.23,NE,40,1.0,1.0,50,0.00,,---,0.00,VWS V14.01,2013-01-31 13:22:00,
2013-01-31 07:27:00,39.2,21.2,30.23,NE,40,1.0,1.0,48,0.00,,---,0.00,VWS V14.01,2013-01-31 13:27:00,
2013-01-31 07:32:00,39.3,21.3,30.24,NE,40,1.0,1.0,48,0.00,,---,0.00,VWS V14.01,2013-01-31 13:32:00,
2013-01-31 07:37:00,39.3,21.3,30.24,NE,40,1.0,1.0,48,0.00,,---,0.00,VWS V14.01,2013-01-31 13:37:00,
2013-01-31 07:42:00,39.6,21.5,30.24,NE,40,1.0,1.0,48,0.00,,---,0.00,VWS V14.01,2013-01-31 13:42:00,
2013-01-31 07:47:00,39.8,21.2,30.23,NE,40,1.0,1.0,47,0.00,,---,0.00,VWS V14.01,2013-01-31 13:47:00,
2013-01-31 07:52:00,40.2,21.1,30.23,NE,40,1.0,2.0,46,0.00,,---,0.00,VWS V14.01,2013-01-31 13:52:00,
2013-01-31 07:57:00,40.6,21.5,30.23,NE,40,1.0,2.0,46,0.00,,---,0.00,VWS V14.01,2013-01-31 13:57:00,
2013-01-31 08:02:00,41.2,22.0,30.24,NE,40,1.0,1.0,46,0.00,,---,0.00,VWS V14.01,2013-01-31 14:02:00,
2013-01-31 08:07:00,41.6,21.9,30.24,NE,40,1.0,2.0,45,0.00,,---,0.00,VWS V14.01,2013-01-31 14:07:00,
2013-01-31 08:12:00,42.2,22.9,30.24,NE,40,1.0,2.0,46,0.00,,---,0.00,VWS V14.01,2013-01-31 14:12:00,
2013-01-31 08:17:00,42.6,22.8,30.24,NE,40,1.0,2.0,45,0.00,,---,0.00,VWS V14.01,2013-01-31 14:17:00,
2013-01-31 08:22:00,43.1,23.2,30.24,NE,40,1.0,3.0,45,0.00,,---,0.00,VWS V14.01,2013-01-31 14:22:00,
2013-01-31 08:27:00,43.6,23.7,30.24,NE,40,1.0,3.0,45,0.00,,---,0.00,VWS V14.01,2013-01-31 14:27:00,
2013-01-31 08:32:00,43.9,24.5,30.26,NE,40,1.0,3.0,46,0.00,,---,0.00,VWS V14.01,2013-01-31 14:32:00,
2013-01-31 08:37:00,44.2,24.2,30.26,NE,40,3.0,3.0,45,0.00,,---,0.00,VWS V14.01,2013-01-31 14:37:00,
2013-01-31 08:42:00,44.8,24.2,30.26,NE,40,1.0,3.0,44,0.00,,---,0.00,VWS V14.01,2013-01-31 14:42:00,
2013-01-31 08:47:00,45.2,25.1,30.25,NE,40,1.0,2.0,45,0.00,,---,0.00,VWS V14.01,2013-01-31 14:47:00,
2013-01-31 08:52:00,45.8,25.7,30.25,NE,40,2.0,2.0,45,0.00,,---,0.00,VWS V14.01,2013-01-31 14:52:00,
2013-01-31 08:57:00,46.8,26.6,30.25,NE,40,1.0,3.0,45,0.00,,---,0.00,VWS V14.01,2013-01-31 14:57:00,
2013-01-31 09:02:00,47.7,27.4,30.26,NE,40,2.0,3.0,45,0.00,,---,0.00,VWS V14.01,2013-01-31 15:02:00,
2013-01-31 09:07:00,48.5,28.1,30.26,NE,40,1.0,3.0,45,0.00,,---,0.00,VWS V14.01,2013-01-31 15:07:00,
2013-01-31 09:12:00,49.2,28.2,30.26,NE,40,4.0,4.0,44,0.00,,---,0.00,VWS V14.01,2013-01-31 15:12:00,
2013-01-31 09:17:00,49.9,28.9,30.26,NE,40,1.0,4.0,44,0.00,,---,0.00,VWS V14.01,2013-01-31 15:17:00,
2013-01-31 09:22:00,50.8,29.7,30.26,NE,40,3.0,4.0,44,0.00,,---,0.00,VWS V14.01,2013-01-31 15:22:00,
2013-01-31 09:27:00,52.0,30.2,30.26,NE,40,3.0,4.0,43,0.00,,---,0.00,VWS V14.01,2013-01-31 15:27:00,
2013-01-31 09:32:00,52.8,30.9,30.27,NE,40,1.0,1.0,43,0.00,,---,0.00,VWS V14.01,2013-01-31 15:32:00,
2013-01-31 09:37:00,53.2,31.3,30.27,NE,40,1.0,3.0,43,0.00,,---,0.00,VWS V14.01,2013-01-31 15:37:00,
2013-01-31 09:42:00,53.6,31.7,30.27,NE,40,2.0,3.0,43,0.00,,---,0.00,VWS V14.01,2013-01-31 15:42:00,
2013-01-31 09:47:00,53.9,31.9,30.27,NE,40,2.0,3.0,43,0.00,,---,0.00,VWS V14.01,2013-01-31 15:47:00,
2013-01-31 09:52:00,54.4,32.4,30.27,NE,40,3.0,3.0,43,0.00,,---,0.00,VWS V14.01,2013-01-31 15:52:00,
2013-01-31 09:57:00,55.1,32.4,30.27,NE,40,2.0,4.0,42,0.00,,---,0.00,VWS V14.01,2013-01-31 15:57:00,
2013-01-31 10:02:00,56.2,32.8,30.27,ESE,104,1.0,4.0,41,0.00,,---,0.00,VWS V14.01,2013-01-31 16:02:00,
2013-01-31 10:07:00,57.2,33.7,30.27,SE,135,2.0,4.0,41,0.00,,---,0.00,VWS V14.01,2013-01-31 16:07:00,
2013-01-31 10:12:00,58.7,33.8,30.27,SE,136,1.0,4.0,39,0.00,,---,0.00,VWS V14.01,2013-01-31 16:12:00,
2013-01-31 10:17:00,59.6,33.3,30.27,SE,139,2.0,4.0,37,0.00,,---,0.00,VWS V14.01,2013-01-31 16:17:00,
2013-01-31 10:22:00,60.2,33.2,30.27,SW,215,6.0,7.0,36,0.00,,---,0.00,VWS V14.01,2013-01-31 16:22:00,
2013-01-31 10:27:00,60.7,32.9,30.27,South,187,2.0,8.0,35,0.00,,---,0.00,VWS V14.01,2013-01-31 16:27:00,
2013-01-31 10:32:00,61.3,32.7,30.27,South,186,4.0,7.0,34,0.00,,---,0.00,VWS V14.01,2013-01-31 16:32:00,
2013-01-31 10:37:00,62.4,32.9,30.27,SE,135,6.0,10.0,33,0.00,,---,0.00,VWS V14.01,2013-01-31 16:37:00,
2013-01-31 10:42:00,63.2,32.9,30.27,SSE,158,5.0,10.0,32,0.00,,---,0.00,VWS V14.01,2013-01-31 16:42:00,
2013-01-31 10:47:00,63.7,29.1,30.27,SSE,165,7.0,10.0,27,0.00,,---,0.00,VWS V14.01,2013-01-31 16:47:00,
2013-01-31 10:52:00,64.2,29.5,30.27,SSE,159,5.0,10.0,27,0.00,,---,0.00,VWS V14.01,2013-01-31 16:52:00,
2013-01-31 10:57:00,64.7,29.0,30.27,South,172,6.0,10.0,26,0.00,,---,0.00,VWS V14.01,2013-01-31 16:57:00,
2013-01-31 11:02:00,65.0,30.2,30.28,SSW,193,3.0,7.0,27,0.00,,---,0.00,VWS V14.01,2013-01-31 17:02:00,
2013-01-31 11:07:00,65.3,25.5,30.28,South,177,3.0,11.0,22,0.00,,---,0.00,VWS V14.01,2013-01-31 17:07:00,
2013-01-31 11:12:00,65.5,25.7,30.28,SW,224,2.0,11.0,22,0.00,,---,0.00,VWS V14.01,2013-01-31 17:12:00,
2013-01-31 11:17:00,65.8,27.0,30.28,SW,220,3.0,8.0,23,0.00,,---,0.00,VWS V14.01,2013-01-31 17:17:00,
2013-01-31 11:22:00,66.0,26.1,30.28,WSW,239,3.0,8.0,22,0.00,,---,0.00,VWS V14.01,2013-01-31 17:22:00,
2013-01-31 11:27:00,66.0,25.0,30.28,SE,125,7.0,13.0,21,0.00,,---,0.00,VWS V14.01,2013-01-31 17:27:00,
2013-01-31 11:32:00,66.6,25.5,30.28,South,187,10.0,11.0,21,0.00,,---,0.00,VWS V14.01,2013-01-31 17:32:00,
2013-01-31 11:37:00,66.8,26.8,30.28,South,183,3.0,12.0,22,0.00,,---,0.00,VWS V14.01,2013-01-31 17:37:00,
2013-01-31 11:42:00,66.3,24.1,30.28,ESE,114,2.0,12.0,20,0.00,,---,0.00,VWS V14.01,2013-01-31 17:42:00,
2013-01-31 11:47:00,66.1,23.9,30.27,SSE,159,5.0,7.0,20,0.00,,---,0.00,VWS V14.01,2013-01-31 17:47:00,
2013-01-31 11:52:00,66.3,22.8,30.27,SSE,167,6.0,11.0,19,0.00,,---,0.00,VWS V14.01,2013-01-31 17:52:00,
2013-01-31 11:57:00,66.6,23.1,30.27,ESE,111,3.0,13.0,19,0.00,,---,0.00,VWS V14.01,2013-01-31 17:57:00,
2013-01-31 12:02:00,66.9,23.3,30.25,South,177,3.0,11.0,19,0.00,,---,0.00,VWS V14.01,2013-01-31 18:02:00,
2013-01-31 12:07:00,67.4,23.7,30.25,South,173,4.0,11.0,19,0.00,,---,0.00,VWS V14.01,2013-01-31 18:07:00,
2013-01-31 12:12:00,68.1,24.3,30.25,SW,221,4.0,11.0,19,0.00,,---,0.00,VWS V14.01,2013-01-31 18:12:00,
2013-01-31 12:17:00,68.1,24.3,30.25,South,182,1.0,8.0,19,0.00,,---,0.00,VWS V14.01,2013-01-31 18:17:00,
2013-01-31 12:22:00,68.4,25.8,30.25,South,182,1.0,8.0,20,0.00,,---,0.00,VWS V14.01,2013-01-31 18:22:00,
2013-01-31 12:27:00,68.9,26.2,30.25,ESE,104,2.0,8.0,20,0.00,,---,0.00,VWS V14.01,2013-01-31 18:27:00,
2013-01-31 12:32:00,68.6,23.4,30.25,SSE,165,4.0,11.0,18,0.00,,---,0.00,VWS V14.01,2013-01-31 18:32:00,
2013-01-31 12:37:00,67.8,22.8,30.25,ESE,115,6.0,14.0,18,0.00,,---,0.00,VWS V14.01,2013-01-31 18:37:00,
2013-01-31 12:42:00,67.8,24.1,30.25,SSE,149,12.0,15.0,19,0.00,,---,0.00,VWS V14.01,2013-01-31 18:42:00,
2013-01-31 12:47:00,67.3,24.9,30.24,ESE,118,7.0,15.0,20,0.00,,---,0.00,VWS V14.01,2013-01-31 18:47:00,
2013-01-31 12:52:00,67.3,27.2,30.24,SE,143,8.0,15.0,22,0.00,,---,0.00,VWS V14.01,2013-01-31 18:52:00,
2013-01-31 12:57:00,67.6,27.4,30.24,SE,143,8.0,15.0,22,0.00,,---,0.00,VWS V14.01,2013-01-31 18:57:00,
2013-01-31 13:02:00,67.4,28.4,30.23,SE,134,6.0,10.0,23,0.00,,---,0.00,VWS V14.01,2013-01-31 19:02:00,
2013-01-31 13:07:00,67.9,28.8,30.23,East,83,5.0,12.0,23,0.00,,---,0.00,VWS V14.01,2013-01-31 19:07:00,
2013-01-31 13:12:00,68.4,29.2,30.23,East,98,7.0,14.0,23,0.00,,---,0.00,VWS V14.01,2013-01-31 19:12:00,
2013-01-31 13:17:00,68.6,29.4,30.22,SE,138,8.0,13.0,23,0.00,,---,0.00,VWS V14.01,2013-01-31 19:17:00,
2013-01-31 13:22:00,67.9,29.8,30.22,SSE,158,12.0,14.0,24,0.00,,---,0.00,VWS V14.01,2013-01-31 19:22:00,
2013-01-31 13:27:00,67.6,29.6,30.22,East,100,9.0,14.0,24,0.00,,---,0.00,VWS V14.01,2013-01-31 19:27:00,
2013-01-31 13:32:00,67.6,30.6,30.21,ESE,110,12.0,12.0,25,0.00,,---,0.00,VWS V14.01,2013-01-31 19:32:00,
2013-01-31 13:37:00,67.8,29.7,30.21,SE,142,11.0,14.0,24,0.00,,---,0.00,VWS V14.01,2013-01-31 19:37:00,
2013-01-31 13:42:00,67.9,29.8,30.21,ESE,112,14.0,14.0,24,0.00,,---,0.00,VWS V14.01,2013-01-31 19:42:00,
2013-01-31 13:47:00,67.8,28.7,30.21,South,174,8.0,12.0,23,0.00,,---,0.00,VWS V14.01,2013-01-31 19:47:00,
2013-01-31 13:52:00,67.3,27.2,30.21,ESE,107,11.0,14.0,22,0.00,,---,0.00,VWS V14.01,2013-01-31 19:52:00,
2013-01-31 13:57:00,67.4,27.3,30.21,SE,125,12.0,15.0,22,0.00,,---,0.00,VWS V14.01,2013-01-31 19:57:00,
2013-01-31 14:02:00,67.4,28.4,30.20,SE,141,15.0,15.0,23,0.00,,---,0.00,VWS V14.01,2013-01-31 20:02:00,
2013-01-31 14:07:00,67.1,29.1,30.20,SE,136,10.0,15.0,24,0.00,,---,0.00,VWS V14.01,2013-01-31 20:07:00,
2013-01-31 14:12:00,66.8,28.9,30.20,SE,131,11.0,15.0,24,0.00,,---,0.00,VWS V14.01,2013-01-31 20:12:00,
2013-01-31 14:17:00,66.8,28.9,30.19,SE,135,18.0,18.0,24,0.00,,---,0.00,VWS V14.01,2013-01-31 20:17:00,
2013-01-31 14:22:00,66.3,28.5,30.19,South,182,10.0,19.0,24,0.00,,---,0.00,VWS V14.01,2013-01-31 20:22:00,
2013-01-31 14:27:00,66.3,28.5,30.19,SE,128,14.0,19.0,24,0.00,,---,0.00,VWS V14.01,2013-01-31 20:27:00,
2013-01-31 14:33:00,66.3,29.5,30.18,SE,138,12.0,18.0,25,0.00,,---,0.00,VWS V14.01,2013-01-31 20:33:00,
2013-01-31 14:38:00,66.1,31.2,30.18,South,174,5.0,19.0,27,0.00,,---,0.00,VWS V14.01,2013-01-31 20:38:00,
2013-01-31 14:43:00,66.1,28.3,30.18,SE,129,13.0,19.0,24,0.00,,---,0.00,VWS V14.01,2013-01-31 20:43:00,
2013-01-31 14:48:00,66.8,29.9,30.18,ESE,105,15.0,16.0,25,0.00,,---,0.00,VWS V14.01,2013-01-31 20:48:00,
2013-01-31 14:53:00,66.6,29.7,30.18,ESE,122,13.0,16.0,25,0.00,,---,0.00,VWS V14.01,2013-01-31 20:53:00,
2013-01-31 14:58:00,66.4,28.5,30.18,ESE,122,11.0,20.0,24,0.00,,---,0.00,VWS V14.01,2013-01-31 20:58:00,
2013-01-31 15:03:00,65.8,29.0,30.18,SE,129,19.0,19.0,25,0.00,,---,0.00,VWS V14.01,2013-01-31 21:03:00,
2013-01-31 15:08:00,66.0,29.2,30.18,SE,136,14.0,19.0,25,0.00,,---,0.00,VWS V14.01,2013-01-31 21:08:00,
2013-01-31 15:13:00,66.3,29.5,30.18,SE,145,11.0,19.0,25,0.00,,---,0.00,VWS V14.01,2013-01-31 21:13:00,
2013-01-31 15:18:00,66.4,31.4,30.17,ESE,114,12.0,18.0,27,0.00,,---,0.00,VWS V14.01,2013-01-31 21:18:00,
2013-01-31 15:23:00,66.1,30.2,30.17,SSW,196,4.0,20.0,26,0.00,,---,0.00,VWS V14.01,2013-01-31 21:23:00,
2013-01-31 15:28:00,66.1,32.1,30.17,SE,129,5.0,20.0,28,0.00,,---,0.00,VWS V14.01,2013-01-31 21:28:00,
2013-01-31 15:33:00,66.3,31.4,30.17,SE,125,14.0,18.0,27,0.00,,---,0.00,VWS V14.01,2013-01-31 21:33:00,
2013-01-31 15:38:00,66.3,32.2,30.17,SE,128,12.0,18.0,28,0.00,,---,0.00,VWS V14.01,2013-01-31 21:38:00,
2013-01-31 15:43:00,65.8,33.5,30.17,SE,132,12.0,18.0,30,0.00,,---,0.00,VWS V14.01,2013-01-31 21:43:00,
2013-01-31 15:48:00,66.0,32.9,30.17,SE,146,7.0,14.0,29,0.00,,---,0.00,VWS V14.01,2013-01-31 21:48:00,
2013-01-31 15:53:00,65.8,35.2,30.17,ESE,111,7.0,18.0,32,0.00,,---,0.00,VWS V14.01,2013-01-31 21:53:00,
2013-01-31 15:58:00,65.6,35.8,30.17,East,100,9.0,18.0,33,0.00,,---,0.00,VWS V14.01,2013-01-31 21:58:00,
2013-01-31 16:03:00,65.3,37.0,30.18,SSE,152,9.0,18.0,35,0.00,,---,0.00,VWS V14.01,2013-01-31 22:03:00,
2013-01-31 16:08:00,65.5,36.4,30.18,SSE,156,10.0,18.0,34,0.00,,---,0.00,VWS V14.01,2013-01-31 22:08:00,
2013-01-31 16:13:00,65.3,37.7,30.18,SE,124,8.0,18.0,36,0.00,,---,0.00,VWS V14.01,2013-01-31 22:13:00,
2013-01-31 16:18:00,64.8,37.9,30.17,SSE,152,13.0,17.0,37,0.00,,---,0.00,VWS V14.01,2013-01-31 22:18:00,
2013-01-31 16:23:00,64.5,38.3,30.17,SE,142,18.0,20.0,38,0.00,,---,0.00,VWS V14.01,2013-01-31 22:23:00,
2013-01-31 16:28:00,64.2,37.4,30.17,SE,125,7.0,21.0,37,0.00,,---,0.00,VWS V14.01,2013-01-31 22:28:00,
2013-01-31 16:33:00,64.3,37.5,30.17,ESE,115,13.0,13.0,37,0.00,,---,0.00,VWS V14.01,2013-01-31 22:33:00,
2013-01-31 16:38:00,64.3,39.5,30.17,SE,128,13.0,19.0,40,0.00,,---,0.00,VWS V14.01,2013-01-31 22:38:00,
2013-01-31 16:43:00,64.3,37.5,30.17,SE,143,8.0,19.0,37,0.00,,---,0.00,VWS V14.01,2013-01-31 22:43:00,
2013-01-31 16:48:00,64.2,39.4,30.17,SE,138,13.0,14.0,40,0.00,,---,0.00,VWS V14.01,2013-01-31 22:48:00,
2013-01-31 16:53:00,63.9,38.5,30.17,ESE,104,14.0,20.0,39,0.00,,---,0.00,VWS V14.01,2013-01-31 22:53:00,
2013-01-31 16:58:00,63.5,38.8,30.17,East,94,8.0,20.0,40,0.00,,---,0.00,VWS V14.01,2013-01-31 22:58:00,
2013-01-31 17:03:00,63.4,39.9,30.16,ESE,114,7.0,19.0,42,0.00,,---,0.00,VWS V14.01,2013-01-31 23:03:00,
2013-01-31 17:08:00,63.4,39.9,30.16,SE,125,10.0,19.0,42,0.00,,---,0.00,VWS V14.01,2013-01-31 23:08:00,
2013-01-31 17:13:00,63.2,39.8,30.16,SSE,167,7.0,19.0,42,0.00,,---,0.00,VWS V14.01,2013-01-31 23:13:00,
2013-01-31 17:18:00,62.9,40.1,30.17,SE,141,7.0,19.0,43,0.00,,---,0.00,VWS V14.01,2013-01-31 23:18:00,
2013-01-31 17:23:00,62.9,40.1,30.17,ESE,118,6.0,19.0,43,0.00,,---,0.00,VWS V14.01,2013-01-31 23:23:00,
2013-01-31 17:28:00,62.9,40.1,30.17,ESE,107,12.0,19.0,43,0.00,,---,0.00,VWS V14.01,2013-01-31 23:28:00,
2013-01-31 17:33:00,62.7,40.5,30.18,SE,129,7.0,15.0,44,0.00,,---,0.00,VWS V14.01,2013-01-31 23:33:00,
2013-01-31 17:38:00,62.6,40.4,30.18,SE,126,9.0,18.0,44,0.00,,---,0.00,VWS V14.01,2013-01-31 23:38:00,
2013-01-31 17:43:00,62.4,40.2,30.18,ESE,117,11.0,18.0,44,0.00,,---,0.00,VWS V14.01,2013-01-31 23:43:00,
2013-01-31 17:48:00,62.3,40.7,30.17,SE,134,5.0,14.0,45,0.00,,---,0.00,VWS V14.01,2013-01-31 23:48:00,
2013-01-31 17:53:00,62.1,41.1,30.17,SE,132,10.0,14.0,46,0.00,,---,0.00,VWS V14.01,2013-01-31 23:53:00,
2013-01-31 17:58:00,61.8,41.9,30.17,SE,138,6.0,14.0,48,0.00,,---,0.00,VWS V14.01,2013-01-31 23:58:00,
2013-01-31 18:03:00,61.6,42.8,30.17,SSE,148,11.0,13.0,50,0.00,,---,0.00,VWS V14.01,2013-02-01 00:03:00,
2013-01-31 18:08:00,61.3,43.0,30.17,SSE,152,6.0,13.0,51,0.00,,---,0.00,VWS V14.01,2013-02-01 00:08:00,
2013-01-31 18:13:00,61.2,43.5,30.17,SE,125,3.0,13.0,52,0.00,,---,0.00,VWS V14.01,2013-02-01 00:13:00,
2013-01-31 18:18:00,61.0,44.2,30.17,SE,136,1.0,7.0,54,0.00,,---,0.00,VWS V14.01,2013-02-01 00:18:00,
2013-01-31 18:23:00,60.9,44.2,30.17,SE,132,5.0,10.0,54,0.00,,---,0.00,VWS V14.01,2013-02-01 00:23:00,
2013-01-31 18:28:00,60.5,43.8,30.17,SE,131,4.0,10.0,54,0.00,,---,0.00,VWS V14.01,2013-02-01 00:28:00,
2013-01-31 18:33:00,60.4,44.2,30.18,WSW,258,6.0,9.0,55,0.00,,---,0.00,VWS V14.01,2013-02-01 00:33:00,
2013-01-31 18:38:00,60.2,44.5,30.18,SE,129,6.0,9.0,56,0.00,,---,0.00,VWS V14.01,2013-02-01 00:38:00,
2013-01-31 18:43:00,60.1,44.8,30.18,SE,138,4.0,9.0,57,0.00,,---,0.00,VWS V14.01,2013-02-01 00:43:00,
2013-01-31 18:48:00,59.8,45.0,30.17,SE,139,11.0,11.0,58,0.00,,---,0.00,VWS V14.01,2013-02-01 00:48:00,
2013-01-31 18:53:00,59.6,44.8,30.17,SE,134,7.0,11.0,58,0.00,,---,0.00,VWS V14.01,2013-02-01 00:53:00,
2013-01-31 18:58:00,59.5,45.2,30.17,SE,135,4.0,11.0,59,0.00,,---,0.00,VWS V14.01,2013-02-01 00:58:00,
2013-01-31 19:03:00,59.3,45.4,30.18,SE,143,5.0,8.0,60,0.00,,---,0.00,VWS V14.01,2013-02-01 01:03:00,
2013-01-31 19:08:00,59.2,45.3,30.18,SE,135,3.0,8.0,60,0.00,,---,0.00,VWS V14.01,2013-02-01 01:08:00,
2013-01-31 19:13:00,59.0,45.6,30.18,SE,135,3.0,8.0,61,0.00,,---,0.00,VWS V14.01,2013-02-01 01:13:00,
2013-01-31 19:19:00,58.9,45.9,30.19,SE,138,3.0,6.0,62,0.00,,---,0.00,VWS V14.01,2013-02-01 01:19:00,
2013-01-31 19:24:00,58.7,45.7,30.19,SE,138,3.0,6.0,62,0.00,,---,0.00,VWS V14.01,2013-02-01 01:24:00,
2013-01-31 19:29:00,58.6,45.6,30.19,SE,135,7.0,9.0,62,0.00,,---,0.00,VWS V14.01,2013-02-01 01:29:00,
2013-01-31 19:34:00,58.6,46.1,30.19,SE,138,4.0,7.0,63,0.00,,---,0.00,VWS V14.01,2013-02-01 01:34:00,
2013-01-31 19:39:00,58.3,46.2,30.19,SE,141,4.0,7.0,64,0.00,,---,0.00,VWS V14.01,2013-02-01 01:39:00,
2013-01-31 19:44:00,58.3,46.6,30.19,SE,142,3.0,7.0,65,0.00,,---,0.00,VWS V14.01,2013-02-01 01:44:00,
2013-01-31 19:49:00,58.1,46.4,30.20,SE,142,3.0,4.0,65,0.00,,---,0.00,VWS V14.01,2013-02-01 01:49:00,
2013-01-31 19:54:00,58.1,46.4,30.20,SE,141,2.0,8.0,65,0.00,,---,0.00,VWS V14.01,2013-02-01 01:54:00,
2013-01-31 19:59:00,58.1,46.8,30.20,SE,141,3.0,8.0,66,0.00,,---,0.00,VWS V14.01,2013-02-01 01:59:00,
2013-01-31 20:04:00,58.0,46.7,30.21,SE,141,5.0,5.0,66,0.00,,---,0.00,VWS V14.01,2013-02-01 02:04:00,
2013-01-31 20:09:00,58.0,47.1,30.21,SE,141,4.0,6.0,67,0.00,,---,0.00,VWS V14.01,2013-02-01 02:09:00,
2013-01-31 20:14:00,57.8,46.9,30.21,SE,141,3.0,7.0,67,0.00,,---,0.00,VWS V14.01,2013-02-01 02:14:00,
2013-01-31 20:19:00,57.6,46.7,30.21,SE,141,4.0,6.0,67,0.00,,---,0.00,VWS V14.01,2013-02-01 02:19:00,
2013-01-31 20:24:00,57.6,47.1,30.21,SE,141,4.0,7.0,68,0.00,,---,0.00,VWS V14.01,2013-02-01 02:24:00,
2013-01-31 20:29:00,57.6,47.1,30.21,SE,141,4.0,7.0,68,0.00,,---,0.00,VWS V14.01,2013-02-01 02:29:00,
2013-01-31 20:34:00,57.6,47.1,30.22,SE,141,1.0,4.0,68,0.00,,---,0.00,VWS V14.01,2013-02-01 02:34:00,
2013-01-31 20:39:00,57.6,47.5,30.22,SE,141,2.0,6.0,69,0.00,,---,0.00,VWS V14.01,2013-02-01 02:39:00,
2013-01-31 20:44:00,57.6,47.5,30.22,SE,141,3.0,6.0,69,0.00,,---,0.00,VWS V14.01,2013-02-01 02:44:00,
2013-01-31 20:49:00,57.6,47.5,30.21,SE,141,3.0,6.0,69,0.00,,---,0.00,VWS V14.01,2013-02-01 02:49:00,
2013-01-31 20:54:00,57.8,47.7,30.21,SE,141,5.0,6.0,69,0.00,,---,0.00,VWS V14.01,2013-02-01 02:54:00,
2013-01-31 20:59:00,57.8,47.7,30.21,SE,141,3.0,6.0,69,0.00,,---,0.00,VWS V14.01,2013-02-01 02:59:00,
2013-01-31 21:04:00,57.8,47.7,30.23,SE,141,3.0,4.0,69,0.00,,---,0.00,VWS V14.01,2013-02-01 03:04:00,
2013-01-31 21:09:00,58.0,47.9,30.23,SE,141,2.0,4.0,69,0.00,,---,0.00,VWS V14.01,2013-02-01 03:09:00,
2013-01-31 21:14:00,58.1,48.0,30.23,SE,141,1.0,4.0,69,0.00,,---,0.00,VWS V14.01,2013-02-01 03:14:00,
2013-01-31 21:19:00,58.1,48.4,30.23,SE,141,1.0,4.0,70,0.00,,---,0.00,VWS V14.01,2013-02-01 03:19:00,
2013-01-31 21:24:00,58.1,48.4,30.23,SE,141,1.0,4.0,70,0.00,,---,0.00,VWS V14.01,2013-02-01 03:24:00,
2013-01-31 21:29:00,58.0,48.3,30.23,SE,141,2.0,4.0,70,0.00,,---,0.00,VWS V14.01,2013-02-01 03:29:00,
2013-01-31 21:34:00,58.0,48.7,30.23,SE,141,1.0,2.0,71,0.00,,---,0.00,VWS V14.01,2013-02-01 03:34:00,
2013-01-31 21:39:00,57.8,48.5,30.23,SE,141,1.0,2.0,71,0.00,,---,0.00,VWS V14.01,2013-02-01 03:39:00,
2013-01-31 21:44:00,57.8,48.5,30.23,SE,141,1.0,2.0,71,0.00,,---,0.00,VWS V14.01,2013-02-01 03:44:00,
2013-01-31 21:49:00,57.6,48.3,30.24,SE,141,1.0,1.0,71,0.00,,---,0.00,VWS V14.01,2013-02-01 03:49:00,
2013-01-31 21:54:00,57.6,48.7,30.24,SE,141,1.0,1.0,72,0.00,,---,0.00,VWS V14.01,2013-02-01 03:54:00,
2013-01-31 21:59:00,57.5,48.6,30.24,SE,141,1.0,3.0,72,0.00,,---,0.00,VWS V14.01,2013-02-01 03:59:00,
2013-01-31 22:04:00,57.5,48.9,30.24,SE,141,1.0,3.0,73,0.00,,---,0.00,VWS V14.01,2013-02-01 04:04:00,
2013-01-31 22:09:00,57.5,48.9,30.24,SE,141,1.0,4.0,73,0.00,,---,0.00,VWS V14.01,2013-02-01 04:09:00,
2013-01-31 22:14:00,57.3,48.7,30.24,SE,141,2.0,6.0,73,0.00,,---,0.00,VWS V14.01,2013-02-01 04:14:00,
2013-01-31 22:19:00,57.3,48.7,30.23,SE,141,2.0,4.0,73,0.00,,---,0.00,VWS V14.01,2013-02-01 04:19:00,
2013-01-31 22:24:00,57.3,48.7,30.23,SE,141,1.0,4.0,73,0.00,,---,0.00,VWS V14.01,2013-02-01 04:24:00,
2013-01-31 22:29:00,57.3,48.7,30.23,SE,141,2.0,4.0,73,0.00,,---,0.00,VWS V14.01,2013-02-01 04:29:00,
2013-01-31 22:34:00,57.2,49.0,30.23,SE,141,2.0,4.0,74,0.00,,---,0.00,VWS V14.01,2013-02-01 04:34:00,
2013-01-31 22:39:00,57.2,49.0,30.23,SE,141,2.0,4.0,74,0.00,,---,0.00,VWS V14.01,2013-02-01 04:39:00,
2013-01-31 22:44:00,57.3,48.7,30.23,SE,141,1.0,4.0,73,0.00,,---,0.00,VWS V14.01,2013-02-01 04:44:00,
2013-01-31 22:49:00,57.3,48.7,30.24,SE,141,2.0,3.0,73,0.00,,---,0.00,VWS V14.01,2013-02-01 04:49:00,
2013-01-31 22:54:00,57.3,48.7,30.24,SE,141,2.0,3.0,73,0.00,,---,0.00,VWS V14.01,2013-02-01 04:54:00,
2013-01-31 22:59:00,57.5,48.9,30.24,SE,141,1.0,4.0,73,0.00,,---,0.00,VWS V14.01,2013-02-01 04:59:00,
2013-01-31 23:00:00,57.5,48.9,30.23,SE,141,3.0,4.0,73,0.00,,---,0.00,VWS V14.01,2013-02-01 05:00:00,
2013-01-31 23:02:00,57.5,48.9,30.23,SE,141,3.0,3.0,73,0.00,,---,0.00,VWS V14.01,2013-02-01 05:02:00,
2013-01-31 23:07:00,57.5,49.3,30.23,SE,141,1.0,6.0,74,0.00,,---,0.00,VWS V14.01,2013-02-01 05:07:00,
2013-01-31 23:12:00,57.3,49.1,30.23,SE,141,1.0,6.0,74,0.00,,---,0.00,VWS V14.01,2013-02-01 05:12:00,
2013-01-31 23:17:00,57.2,49.0,30.24,SE,141,1.0,1.0,74,0.00,,---,0.00,VWS V14.01,2013-02-01 05:17:00,
2013-01-31 23:22:00,56.9,49.1,30.24,SE,141,1.0,3.0,75,0.00,,---,0.00,VWS V14.01,2013-02-01 05:22:00,
2013-01-31 23:27:00,56.7,48.9,30.24,SE,141,1.0,3.0,75,0.00,,---,0.00,VWS V14.01,2013-02-01 05:27:00,
2013-01-31 23:32:00,56.7,48.9,30.24,SE,141,2.0,2.0,75,0.00,,---,0.00,VWS V14.01,2013-02-01 05:32:00,
2013-01-31 23:37:00,56.6,49.1,30.24,SE,141,2.0,2.0,76,0.00,,---,0.00,VWS V14.01,2013-02-01 05:37:00,
2013-01-31 23:42:00,56.5,49.0,30.24,SE,141,2.0,3.0,76,0.00,,---,0.00,VWS V14.01,2013-02-01 05:42:00,
2013-01-31 23:45:00,57.3,48.7,30.24,SE,141,1.0,4.0,73,0.00,,---,0.00,VWS V14.01,2013-02-01 05:45:00,
2013-01-31 23:47:00,56.5,49.0,30.24,SE,141,3.0,4.0,76,0.00,,---,0.00,VWS V14.01,2013-02-01 05:47:00,
2013-01-31 23:52:00,56.3,49.2,30.24,SE,141,2.0,4.0,77,0.00,,---,0.00,VWS V14.01,2013-02-01 05:52:00,
2013-01-31 23:57:00,56.2,49.1,30.24,SE,141,1.0,4.0,77,0.00,,---,0.00,VWS V14.01,2013-02-01 05:57:00,